Regional Weather Roundup
Issued by NWS

Home | Current Version | Previous Version | Graphics & Text | Print | Product List | Glossary On
Versions: 1 2 3 4 5 6 7 8 9 10 11 12 13 14 15 16 17 18 19 20 21 22 23 24 25 26 27 28 29 30 31 32 33 34 35 36 37 38 39 40 41 42 43 44 45 46 47 48 49 50
000
ASUS43 KLMK 040702
RWRKY
KENTUCKY REGIONAL WEATHER ROUNDUP
NATIONAL WEATHER SERVICE LOUISVILLE KY
300 AM EDT MON MAY 04 2015

NOTE "FAIR" INDICATES FEW OR NO CLOUDS BELOW 12,000 FEET
WITH NO SIGNIFICANT WEATHER AND/OR OBSTRUCTIONS TO VISIBILITY.

KYZ001>023-026-027-061>063-070>075-040800-
WESTERN AND SOUTH CENTRAL KENTUCKY

CITY           SKY/WX    TMP DP  RH WIND       PRES   REMARKS
PADUCAH        CLEAR     66  49  54 S7        30.06R
HENDERSON      CLEAR     61  46  59 S7        30.06S
OWENSBORO      CLEAR     61  51  69 CALM      30.09S
HOPKINSVILLE   CLEAR     61  50  66 S3        30.10R
BOWLING GREEN  CLEAR     55  49  80 CALM      30.12R
GLASGOW        NOT AVBL
$$

KYZ024-025-028>034-038-045-046-053-040800-
NORTH CENTRAL KENTUCKY

CITY           SKY/WX    TMP DP  RH WIND       PRES   REMARKS
LOUISVILLE/SDF MOCLDY    63  51  65 SE7       30.10R
LOUISVILLE/LOU MOCLDY    63  50  62 S3        30.11R
FORT KNOX      PTCLDY    58  50  73 S3        30.09S
$$

KYZ035>037-039>044-047>052-055>060-089>105-040800-
NORTHEAST KENTUCKY

CITY           SKY/WX    TMP DP  RH WIND       PRES   REMARKS
LEXINGTON      CLEAR     56  48  74 S7        30.13R
COVINGTON      MOCLDY    59  48  67 S6        30.11R
FRANKFORT      CLEAR     55  48  77 CALM      30.11R
$$

KYZ054-064>069-076>088-106>120-040800-
SOUTHEAST KENTUCKY

CITY           SKY/WX    TMP DP  RH WIND       PRES   REMARKS
JACKSON        CLEAR     60  44  55 CALM      30.16S
LONDON         CLEAR     55  48  77 CALM      30.16S
SOMERSET       NOT AVBL
MIDDLESBORO    CLEAR     49  47  94 CALM      30.20S
MONTICELLO     SUNNY     52  50  93 CALM      30.19R
$$




USA.gov is the U.S. government's official web portal to all federal, state and local government web resources and services.